AV194 Weather Reports


Display with metric or nautical units.
time (UTC)temp
F
wind
direction
speed
MPH
gust
MPH
rain 1hr
in
rain 24hr
in
rain mn
in
humidity
%
barometer
mb
20260509030512 43 199 0.0 0.0 0.00 0.00 0.00 76 1012.3
20260509030012 43 199 0.0 0.0 0.00 0.00 0.00 75 1012.3
20260509025511 43 199 0.0 0.0 0.00 0.00 0.00 75 1012.3
20260509025011 43 199 0.0 0.0 0.00 0.00 0.00 75 1012.2
20260509024510 44 199 0.0 0.0 0.00 0.00 0.00 75 1012.2
20260509024011 44 199 0.0 0.0 0.00 0.00 0.00 74 1012.1
20260509023509 44 199 0.0 0.0 0.00 0.00 0.00 73 1012.1
20260509023010 44 199 0.0 0.0 0.00 0.00 0.00 73 1012.1
20260509022509 45 199 0.0 0.0 0.00 0.00 0.00 73 1012.1
20260509022009 45 199 0.0 0.0 0.00 0.00 0.00 72 1012.0
20260509021508 45 199 0.0 1.0 0.00 0.00 0.00 71 1012.0
20260509021011 45 199 0.0 1.0 0.00 0.00 0.00 70 1011.9
20260509020512 45 199 0.0 1.0 0.00 0.00 0.00 68 1011.9
20260509020005 46 199 0.0 0.0 0.00 0.00 0.00 70 1011.7
20260509015507 46 199 0.0 0.0 0.00 0.00 0.00 68 1011.6
20260509015006 46 199 0.0 1.0 0.00 0.00 0.00 69 1011.5
20260509014505 46 199 0.0 1.0 0.00 0.00 0.00 68 1011.5
20260509014003 47 199 0.0 1.0 0.00 0.00 0.00 67 1011.4
20260509013503 47 199 0.0 0.0 0.00 0.00 0.00 65 1011.3
20260509013003 47 199 0.0 1.0 0.00 0.00 0.00 65 1011.3
20260509012504 47 199 0.0 1.0 0.00 0.00 0.00 65 1011.2
20260509012002 47 199 0.0 1.0 0.00 0.00 0.00 66 1011.1
20260509011501 47 198 0.0 1.0 0.00 0.00 0.00 65 1011.1
20260509011100 47 198 0.0 1.0 0.00 0.00 0.00 66 1011.0
20260509010559 48 199 0.0 1.0 0.00 0.00 0.00 64 1010.9
20260509010104 48 204 0.0 1.0 0.00 0.00 0.00 63 1010.7
20260509005557 48 132 0.0 1.0 0.00 0.00 0.00 64 1010.6
20260509005056 48 164 0.0 2.0 0.00 0.00 0.00 65 1010.6
20260509004620 48 159 0.0 1.0 0.00 0.00 0.00 63 1010.5
20260509004056 49 190 0.0 1.0 0.00 0.00 0.00 60 1010.4
20260509003559 49 190 0.0 2.0 0.00 0.00 0.00 61 1010.4
20260509003055 49 225 0.0 4.0 0.00 0.00 0.00 60 1010.3
20260509002554 49 222 0.0 4.0 0.00 0.00 0.00 58 1010.3
20260509002053 50 286 0.0 1.0 0.00 0.00 0.00 60 1010.1
20260509001555 50 281 0.0 1.0 0.00 0.00 0.00 56 1010.1
20260509001053 51 281 0.0 1.0 0.00 0.00 0.00 56 1010.0
20260509000551 51 281 0.0 2.0 0.00 0.00 0.00 53 1010.0
20260509000051 52 281 0.0 5.0 0.00 0.00 0.00 53 1010.0
20260508235552 52 290 1.0 5.0 0.00 0.00 0.00 55 1009.9
20260508235053 52 236 2.0 5.0 0.00 0.00 0.00 53 1009.7
20260508234551 52 273 0.0 2.0 0.00 0.00 0.00 52 1009.7
20260508234048 52 302 0.0 2.0 0.00 0.00 0.00 53 1009.5
20260508233552 52 198 0.0 4.0 0.00 0.00 0.00 52 1009.4
20260508233047 52 255 0.0 4.0 0.00 0.00 0.00 53 1009.3
20260508232546 53 288 1.0 4.0 0.00 0.00 0.00 52 1009.3
20260508232050 53 118 0.0 2.0 0.00 0.00 0.00 51 1009.2
20260508231546 53 304 0.0 1.0 0.00 0.00 0.00 49 1009.2
20260508231045 54 323 0.0 2.0 0.00 0.00 0.00 49 1009.0
20260508230545 54 323 0.0 2.0 0.00 0.00 0.00 48 1008.9
20260508230044 54 323 0.0 1.0 0.00 0.00 0.00 49 1008.9
20260508225545 55 323 0.0 4.0 0.00 0.00 0.00 45 1008.8
20260508225045 55 324 0.0 4.0 0.00 0.00 0.00 44 1008.8
20260508224550 55 10 0.0 4.0 0.00 0.00 0.00 43 1008.8
20260508224044 55 336 0.0 4.0 0.00 0.00 0.00 43 1008.8
20260508223544 55 326 1.0 2.0 0.00 0.00 0.00 45 1008.8
20260508223049 55 332 0.0 4.0 0.00 0.00 0.00 43 1008.7
20260508222543 55 266 1.0 4.0 0.00 0.00 0.00 41 1008.6
20260508222043 56 15 0.0 4.0 0.00 0.00 0.00 42 1008.6
20260508221544 56 59 1.0 7.0 0.00 0.00 0.00 42 1008.6
20260508221044 56 304 3.0 7.0 0.00 0.00 0.00 40 1008.6
20260508220543 56 344 2.0 5.0 0.00 0.00 0.00 40 1008.6
20260508220044 57 355 1.0 4.0 0.00 0.00 0.00 41 1008.6
20260508215541 57 340 0.0 4.0 0.00 0.00 0.00 41 1008.5
20260508215042 57 306 1.0 3.0 0.00 0.00 0.00 42 1008.4
20260508214557 57 239 1.0 5.0 0.00 0.00 0.00 39 1008.3
20260508214041 57 324 1.0 5.0 0.00 0.00 0.00 38 1008.3
20260508213541 57 242 1.0 5.0 0.00 0.00 0.00 37 1008.3
20260508213041 57 284 1.0 7.0 0.00 0.00 0.00 41 1008.3
20260508212541 58 145 0.0 7.0 0.00 0.00 0.00 38 1008.3
20260508212040 58 301 1.0 7.0 0.00 0.00 0.00 36 1008.3
20260508211541 59 236 1.0 7.0 0.00 0.00 0.00 35 1008.2
20260508211040 59 80 2.0 6.0 0.00 0.00 0.00 38 1008.1
20260508210540 58 250 2.0 6.0 0.00 0.00 0.00 37 1008.1
20260508210043 58 286 2.0 6.0 0.00 0.00 0.00 36 1008.0
20260508205539 58 333 2.0 6.0 0.00 0.00 0.00 39 1008.1
20260508205040 57 5 1.0 6.0 0.00 0.00 0.00 39 1008.0
20260508204541 58 329 2.0 6.0 0.00 0.00 0.00 37 1008.1
20260508204038 58 277 0.0 7.0 0.00 0.00 0.00 39 1008.0
20260508203539 57 318 2.0 7.0 0.00 0.00 0.00 35 1007.9
20260508203040 58 254 2.0 5.0 0.00 0.00 0.00 36 1007.9
20260508202539 58 216 0.0 6.0 0.00 0.00 0.00 35 1007.8
20260508202039 58 315 0.0 6.0 0.00 0.00 0.00 37 1007.8
20260508201537 58 254 1.0 6.0 0.00 0.00 0.00 37 1007.9
20260508201040 57 289 2.0 5.0 0.00 0.00 0.00 36 1007.8
20260508200537 58 48 2.0 8.0 0.00 0.00 0.00 35 1007.8
20260508200042 58 248 3.0 8.0 0.00 0.00 0.00 37 1007.8
20260508195539 58 167 2.0 5.0 0.00 0.00 0.00 39 1007.8
20260508195036 58 319 2.0 7.0 0.00 0.00 0.00 35 1007.7
20260508194536 58 245 3.0 7.0 0.00 0.00 0.00 36 1007.8
20260508194036 57 42 1.0 6.0 0.00 0.00 0.00 39 1007.7
20260508193536 57 225 0.0 7.0 0.00 0.00 0.00 39 1007.8
20260508193043 57 223 3.0 7.0 0.00 0.00 0.00 36 1007.9
20260508192536 57 293 2.0 7.0 0.00 0.00 0.00 37 1007.9
20260508192040 57 230 3.0 7.0 0.00 0.00 0.00 35 1007.9
20260508191547 57 245 3.0 6.0 0.00 0.00 0.00 36 1008.0
20260508191036 57 291 2.0 5.0 0.00 0.00 0.00 38 1008.0
20260508190535 57 244 2.0 6.0 0.00 0.00 0.00 37 1008.0
20260508190049 57 286 4.0 8.0 0.00 0.00 0.00 35 1008.0
20260508185539 57 228 2.0 8.0 0.00 0.00 0.00 36 1008.0
20260508185035 58 310 1.0 7.0 0.00 0.00 0.00 34 1008.0
20260508184537 58 144 2.0 6.0 0.00 0.00 0.00 36 1008.0
20260508184034 59 232 2.0 6.0 0.00 0.00 0.00 37 1008.1
20260508183534 59 304 3.0 7.0 0.00 0.00 0.00 35 1008.1
20260508183044 59 262 3.0 8.0 0.00 0.00 0.00 40 1008.0
20260508182534 58 292 2.0 8.0 0.00 0.00 0.00 33 1008.1
20260508182034 58 186 3.0 7.0 0.00 0.00 0.00 35 1008.1
20260508181537 58 244 3.0 7.0 0.00 0.00 0.00 34 1008.0
20260508181037 58 200 2.0 9.0 0.00 0.00 0.00 35 1007.9
20260508180533 58 191 3.0 9.0 0.00 0.00 0.00 33 1007.9
20260508180038 58 215 2.0 6.0 0.00 0.00 0.00 38 1007.9
20260508175632 58 340 2.0 10.0 0.00 0.00 0.00 34 1008.0
20260508175032 58 287 2.0 10.0 0.00 0.00 0.00 32 1007.9
20260508174537 59 179 2.0 6.0 0.00 0.00 0.00 38 1007.9
20260508174031 59 233 2.0 6.0 0.00 0.00 0.00 37 1008.0
20260508173530 59 219 2.0 12.0 0.00 0.00 0.00 35 1007.9
20260508173030 59 196 5.0 12.0 0.00 0.00 0.00 35 1007.8
20260508172530 59 351 3.0 6.0 0.00 0.00 0.00 37 1008.0
20260508172030 59 246 1.0 6.0 0.00 0.00 0.00 35 1007.8
20260508171531 59 322 2.0 8.0 0.00 0.00 0.00 38 1007.9
20260508171029 59 242 2.0 7.0 0.00 0.00 0.00 35 1008.0
20260508170528 59 307 4.0 7.0 0.00 0.00 0.00 38 1007.8
20260508170034 60 170 2.0 7.0 0.00 0.00 0.00 35 1007.8
20260508165527 58 5 3.0 8.0 0.00 0.00 0.00 41 1007.8
20260508165029 59 297 2.0 9.0 0.00 0.00 0.00 37 1007.8
20260508164536 59 236 5.0 9.0 0.00 0.00 0.00 38 1007.9
20260508164027 57 211 2.0 7.0 0.00 0.00 0.00 39 1007.9
20260508163526 59 273 1.0 7.0 0.00 0.00 0.00 36 1007.9
20260508163031 59 197 2.0 8.0 0.00 0.00 0.00 36 1007.9
20260508162526 59 259 1.0 8.0 0.00 0.00 0.00 38 1007.9
20260508162027 60 246 2.0 6.0 0.00 0.00 0.00 37 1007.8
20260508161525 59 267 3.0 6.0 0.00 0.00 0.00 42 1007.8
20260508161024 57 202 1.0 6.0 0.00 0.00 0.00 40 1007.9
20260508160524 56 232 1.0 6.0 0.00 0.00 0.00 43 1007.9
20260508160023 56 159 3.0 6.0 0.00 0.00 0.00 45 1007.9
20260508155523 56 9 3.0 6.0 0.00 0.00 0.00 42 1008.0
20260508155023 56 246 2.0 7.0 0.00 0.00 0.00 39 1008.1
20260508154523 56 230 3.0 9.0 0.00 0.00 0.00 39 1008.2
20260508154025 57 228 1.0 9.0 0.00 0.00 0.00 38 1008.2
20260508153522 58 206 2.0 8.0 0.00 0.00 0.00 38 1008.2
20260508153031 59 154 4.0 8.0 0.00 0.00 0.00 41 1008.4
20260508152522 60 195 2.0 8.0 0.00 0.00 0.00 39 1008.4
20260508152019 59 239 2.0 7.0 0.00 0.00 0.00 41 1008.4
20260508151520 58 216 3.0 8.0 0.00 0.00 0.00 39 1008.4
20260508151017 58 184 4.0 8.0 0.00 0.00 0.00 43 1008.3
20260508150515 57 271 2.0 5.0 0.00 0.00 0.00 46 1008.4
20260508150016 58 151 1.0 7.0 0.00 0.00 0.00 41 1008.3
20260508145514 57 223 4.0 7.0 0.00 0.00 0.00 44 1008.5
20260508145012 56 221 1.0 6.0 0.00 0.00 0.00 46 1008.5
20260508144523 56 298 3.0 7.0 0.00 0.00 0.00 43 1008.6
20260508144013 56 225 3.0 7.0 0.00 0.00 0.00 46 1008.7
20260508143511 54 138 0.0 5.0 0.00 0.00 0.00 47 1008.8
20260508143010 54 254 1.0 4.0 0.00 0.00 0.00 43 1008.8
20260508142510 53 288 1.0 4.0 0.00 0.00 0.00 44 1008.8
20260508142015 53 175 1.0 4.0 0.00 0.00 0.00 46 1008.9
20260508141513 53 235 1.0 5.0 0.00 0.00 0.00 45 1009.0
20260508141010 54 248 2.0 7.0 0.00 0.00 0.00 42 1009.0
20260508140509 54 210 2.0 9.0 0.00 0.00 0.00 40 1009.0
20260508140019 55 175 2.0 9.0 0.00 0.00 0.00 42 1008.9
20260508135510 56 266 1.0 6.0 0.00 0.00 0.00 44 1008.9
20260508135010 56 285 0.0 5.0 0.00 0.00 0.00 43 1008.9
20260508134507 56 207 1.0 5.0 0.00 0.00 0.00 44 1009.0
20260508134006 55 228 2.0 9.0 0.00 0.00 0.00 44 1009.0
20260508133505 54 267 3.0 9.0 0.00 0.00 0.00 46 1009.1
20260508133004 54 334 1.0 5.0 0.00 0.00 0.00 45 1009.0
20260508132505 54 220 2.0 4.0 0.00 0.00 0.00 47 1009.0
20260508132003 53 225 1.0 3.0 0.00 0.00 0.00 46 1009.1
20260508131504 53 360 1.0 6.0 0.00 0.00 0.00 46 1009.1
20260508131004 53 292 1.0 6.0 0.00 0.00 0.00 45 1009.1
20260508130503 53 233 2.0 5.0 0.00 0.00 0.00 46 1009.1
20260508130005 54 244 1.0 6.0 0.00 0.00 0.00 45 1009.1
20260508125505 53 285 3.0 6.0 0.00 0.00 0.00 48 1009.1
20260508125103 53 244 2.0 7.0 0.00 0.00 0.00 49 1009.2
20260508124559 53 218 1.0 10.0 0.00 0.00 0.00 48 1009.2
20260508124058 53 257 4.0 8.0 0.00 0.00 0.00 48 1009.1
20260508123557 52 221 1.0 8.0 0.00 0.00 0.00 48 1009.1
20260508123114 52 289 3.0 8.0 0.00 0.00 0.00 48 1009.2
20260508122556 52 273 2.0 6.0 0.00 0.00 0.00 48 1009.1
20260508122056 52 355 1.0 3.0 0.00 0.00 0.00 51 1009.2
20260508121606 52 223 1.0 4.0 0.00 0.00 0.00 54 1009.2
20260508121053 51 213 0.0 5.0 0.00 0.00 0.00 54 1009.2
20260508120550 51 236 1.0 5.0 0.00 0.00 0.00 55 1009.2
20260508120105 49 248 1.0 3.0 0.00 0.00 0.00 60 1009.2
20260508115548 49 219 0.0 2.0 0.00 0.00 0.00 62 1009.2
20260508115046 48 259 0.0 4.0 0.00 0.00 0.00 65 1009.2
20260508114556 47 235 1.0 4.0 0.00 0.00 0.00 65 1009.1
20260508114043 46 225 1.0 2.0 0.00 0.00 0.00 65 1009.1
20260508113542 46 204 1.0 4.0 0.00 0.00 0.00 65 1009.1
20260508113041 45 221 0.0 4.0 0.00 0.00 0.00 67 1009.0
20260508112539 44 265 0.0 2.0 0.00 0.00 0.00 69 1009.1
20260508112037 43 208 0.0 2.0 0.00 0.00 0.00 74 1009.1
20260508111538 42 157 0.0 1.0 0.00 0.00 0.00 78 1009.1
20260508111035 41 140 0.0 1.0 0.00 0.00 0.00 83 1009.1
20260508110534 41 132 0.0 0.0 0.00 0.00 0.00 84 1009.1
20260508110033 40 132 0.0 0.0 0.00 0.00 0.00 86 1009.1
20260508105534 39 132 0.0 1.0 0.00 0.00 0.00 87 1009.1
20260508105031 39 132 0.0 1.0 0.00 0.00 0.00 88 1009.1
20260508104533 38 132 0.0 1.0 0.00 0.00 0.00 88 1009.1
20260508104031 38 131 0.0 0.0 0.00 0.00 0.00 88 1009.1
20260508103528 37 131 0.0 0.0 0.00 0.00 0.00 88 1008.9
20260508103033 37 131 0.0 0.0 0.00 0.00 0.00 88 1008.9
20260508102529 37 131 0.0 0.0 0.00 0.00 0.00 88 1008.8
20260508102025 37 131 0.0 0.0 0.00 0.00 0.00 87 1008.7
20260508101523 37 131 0.0 0.0 0.00 0.00 0.00 87 1008.6
20260508101026 37 131 0.0 0.0 0.00 0.00 0.00 87 1008.5
20260508100522 36 131 0.0 0.0 0.00 0.00 0.00 87 1008.5
20260508100021 36 131 0.0 0.0 0.00 0.00 0.00 87 1008.5
20260508095521 36 131 0.0 0.0 0.00 0.00 0.00 87 1008.4
20260508095120 36 131 0.0 0.0 0.00 0.00 0.00 87 1008.4
20260508094522 36 131 0.0 0.0 0.00 0.00 0.00 87 1008.3
20260508094018 36 131 0.0 0.0 0.00 0.00 0.00 87 1008.2
20260508093518 36 131 0.0 0.0 0.00 0.00 0.00 86 1008.3
20260508093028 36 131 0.0 0.0 0.00 0.00 0.00 86 1008.2
20260508092515 36 131 0.0 0.0 0.00 0.00 0.00 85 1008.2
20260508092017 36 131 0.0 1.0 0.00 0.00 0.00 85 1008.2
20260508091515 37 131 0.0 1.0 0.00 0.00 0.00 84 1008.1
20260508091013 37 143 0.0 1.0 0.00 0.00 0.00 84 1008.1
20260508090513 37 147 0.0 1.0 0.00 0.00 0.00 84 1008.1
20260508090011 37 147 0.0 1.0 0.00 0.00 0.00 83 1008.1
20260508085515 37 147 0.0 0.0 0.00 0.00 0.00 84 1008.1
20260508085010 37 147 0.0 0.0 0.00 0.00 0.00 85 1008.0
20260508084510 37 147 0.0 0.0 0.00 0.00 0.00 85 1008.0
20260508084009 38 147 0.0 1.0 0.00 0.00 0.00 84 1008.0
20260508083509 38 147 0.0 1.0 0.00 0.00 0.00 84 1008.1
20260508083007 38 146 0.0 1.0 0.00 0.00 0.00 83 1007.9
20260508082510 38 139 0.0 1.0 0.00 0.00 0.00 82 1007.9
20260508082008 38 139 0.0 2.0 0.00 0.00 0.00 81 1007.9
20260508081509 38 136 0.0 2.0 0.00 0.00 0.00 80 1007.9
20260508081004 38 111 0.0 1.0 0.00 0.00 0.00 80 1007.8
20260508080503 38 106 0.0 1.0 0.00 0.00 0.00 82 1007.7
20260508080003 38 71 0.0 1.0 0.00 0.01 0.00 82 1007.6
20260508075501 39 71 0.0 1.0 0.00 0.01 0.00 81 1007.3
20260508075002 39 71 0.0 1.0 0.00 0.01 0.00 81 1007.3
20260508074600 39 71 0.0 2.0 0.00 0.01 0.00 80 1007.2
20260508074059 39 67 0.0 2.0 0.00 0.01 0.00 80 1007.1
20260508073559 39 272 0.0 2.0 0.00 0.01 0.00 79 1007.1
20260508073058 40 272 0.0 2.0 0.00 0.01 0.00 78 1007.0
20260508072557 40 272 0.0 2.0 0.00 0.01 0.00 78 1007.1
20260508072057 40 272 0.0 1.0 0.00 0.01 0.00 77 1007.0
20260508071556 40 272 0.0 1.0 0.00 0.01 0.00 78 1007.0
20260508071055 40 272 0.0 1.0 0.00 0.01 0.00 78 1007.0
20260508070558 40 272 0.0 1.0 0.00 0.01 0.00 77 1007.0
20260508070053 40 272 0.0 1.0 0.00 0.01 0.00 76 1006.9
20260508065555 41 272 0.0 2.0 0.00 0.01 0.00 76 1007.0
20260508065052 41 271 0.0 2.0 0.00 0.01 0.00 74 1007.0
20260508064552 41 272 1.0 2.0 0.00 0.01 0.00 75 1007.0
20260508064051 41 271 0.0 2.0 0.00 0.01 0.00 74 1006.9
20260508063551 41 271 1.0 2.0 0.00 0.01 0.00 75 1007.0
20260508063102 41 271 1.0 2.0 0.00 0.01 0.00 77 1007.0
20260508062553 41 271 0.0 2.0 0.00 0.01 0.00 77 1007.0
20260508062049 41 271 0.0 2.0 0.00 0.01 0.00 77 1007.0
20260508061549 41 272 0.0 2.0 0.00 0.01 0.00 78 1007.1
20260508061047 41 272 0.0 2.0 0.00 0.01 0.00 77 1007.1
20260508060545 41 271 1.0 2.0 0.00 0.01 0.00 75 1007.1
20260508060046 41 271 0.0 2.0 0.00 0.01 0.00 76 1007.2
20260508055543 42 271 1.0 2.0 0.00 0.01 0.00 75 1007.2
20260508055042 42 271 1.0 2.0 0.00 0.01 0.00 74 1007.3
20260508054541 42 271 1.0 2.0 0.00 0.01 0.00 72 1007.3
20260508054040 42 270 1.0 2.0 0.00 0.01 0.00 71 1007.3
20260508053539 42 270 1.0 2.0 0.00 0.01 0.00 72 1007.4
20260508053039 42 273 1.0 2.0 0.00 0.01 0.00 72 1007.4
20260508052538 43 273 1.0 2.0 0.00 0.01 0.00 72 1007.4
20260508052036 43 273 0.0 2.0 0.00 0.01 0.00 72 1007.5
20260508051537 43 273 0.0 2.0 0.00 0.01 0.00 71 1007.6
20260508051036 43 273 1.0 2.0 0.00 0.01 0.00 69 1007.5
20260508050533 44 281 0.0 2.0 0.00 0.01 0.00 68 1007.6
20260508050036 44 291 0.0 1.0 0.00 0.01 0.00 68 1007.6
20260508045531 44 291 0.0 1.0 0.00 0.01 0.00 68 1007.6
20260508045031 44 291 0.0 1.0 0.00 0.01 0.00 67 1007.7
20260508044533 44 291 0.0 1.0 0.00 0.01 0.00 68 1007.7
20260508044031 44 291 0.0 1.0 0.00 0.01 0.00 69 1007.8
20260508043530 45 291 0.0 2.0 0.00 0.01 0.00 68 1007.8
20260508043038 45 291 0.0 2.0 0.00 0.01 0.00 68 1007.8
20260508042529 45 272 1.0 2.0 0.00 0.01 0.00 68 1007.8
20260508042027 44 271 1.0 2.0 0.00 0.01 0.00 67 1007.8
20260508041527 44 269 1.0 2.0 0.00 0.01 0.00 71 1007.8
20260508041026 44 265 0.0 1.0 0.00 0.01 0.00 72 1007.9
20260508040525 44 265 0.0 1.0 0.00 0.01 0.00 74 1007.8
20260508040033 44 265 0.0 1.0 0.00 0.01 0.01 73 1007.8
20260508035524 44 265 0.0 1.0 0.00 0.01 0.01 71 1007.8
20260508035023 44 265 0.0 1.0 0.00 0.01 0.01 73 1007.8
20260508034522 45 265 0.0 0.0 0.00 0.01 0.01 73 1007.8
20260508034020 45 265 0.0 0.0 0.00 0.01 0.01 73 1007.8
20260508033519 45 265 0.0 1.0 0.00 0.01 0.01 72 1007.7
20260508033018 46 265 0.0 1.0 0.00 0.01 0.01 70 1007.8
20260508032518 46 265 0.0 2.0 0.00 0.01 0.01 68 1007.8
20260508032017 46 265 0.0 2.0 0.00 0.01 0.01 67 1007.7
20260508031517 46 265 0.0 2.0 0.00 0.01 0.01 69 1007.7
20260508031016 46 265 0.0 2.0 0.00 0.01 0.01 69 1007.6